Location: Newark
(49.4900°N, 20.6656°E)
Time: 17:31:13
(UTC+00:00)

STARLINK-1745 - Pass Details

Date: 24 September 2020
Orbit: 378 x 381 km, 53.0° (Epoch: 30 October)

Event Time Altitude Azimuth Distance (km) Brightness Sun altitude
Exits shadow 01:42:33 21° 56° (NE) 907 5.5 -26.1°
Drops below altitude 10° 01:43:51 10° 67° (ENE) 1,393 6.7 -25.9°
Enters shadow 02:39:35 -69° 271° (W) 12,334 10.4 -17.9°
Maximum altitude 03:16:57 51° 13° (NNE) 483 3.5 -12.1°
